Weather History for Valdosta Regional, GA

Change the Weather History Date:

Wednesday, October 9, 2013

  Actual Average Record
Temperature  
Mean Temperature 69 °F 71 °F  
Max Temperature 77 °F 82 °F 89 °F (1997)
Min Temperature 60 °F 59 °F 42 °F (2000)
Degree Days  
Heating Degree Days 0 0  
Month to date heating degree days 0 0  
Since 1 July heating degree days 0 1  
Cooling Degree Days 4 6  
Month to date cooling degree days 112 65  
Year to date cooling degree days 2840 2290  
Growing Degree Days 20 (Base 50)    
Moisture  
Dew Point 58 °F    
Average Humidity 72    
Maximum Humidity 87    
Minimum Humidity 56    
Precipitation  
Precipitation 0.00 in 0.10 in 0.92 in (1950)
Month to date precipitation 0.01 0.93  
Year to date precipitation 36.01 42.60  
Sea Level Pressure  
Sea Level Pressure 30.11 in    
Wind  
Wind Speed 6 mph (NNE)    
Max Wind Speed 15 mph    
Max Gust Speed 18 mph    
Visibility 10 miles    
Events      
T = Trace of Precipitation, MM = Missing Value Source: NWS Daily Summary

Daily Weather History Graph

Daily Weather History Graph

Search for Another Location

Airport:

Trip Planner

Search our weather history database for the weather conditions in past years. The results will help you decide how hot, cold, wet, or windy it might be!

Date:

Astronomy

Oct. 09, 2013 Rise Set
Actual Time 7:31 AM EDT 7:08 PM EDT
Civil Twilight 7:07 AM EDT 7:32 PM EDT
Nautical Twilight 6:39 AM EDT 8:00 PM EDT
Astronomical Twilight 6:11 AM EDT 8:28 PM EDT
Moon 12:10 PM EDT (10/9) 10:57 PM EDT (10/9)
Length of Visible Light 12h 24m
Length of Day
11h 36m
Waxing Crescent, 25% of the Moon is Illuminated
Oct 9
Waxing Crescent
Oct 11
First Quarter
Oct 18
Full
Oct 26
Last Quarter
Nov 3
New

Hourly Weather History & Observations

Time (EDT) Temp. Dew Point Humidity Pressure Visibility Wind Dir Wind Speed Gust Speed Precip Events Conditions
12:53 AM 66.9 °F 59.0 °F 76% 30.07 in 10.0 mi NE 11.5 mph - N/A   Overcast
1:53 AM 66.0 °F 57.9 °F 75% 30.07 in 10.0 mi NE 6.9 mph - N/A   Overcast
2:24 AM 66.2 °F 57.2 °F 73% 30.05 in 10.0 mi NNE 8.1 mph - N/A   Overcast
2:53 AM 64.9 °F 57.0 °F 75% 30.08 in 10.0 mi NNE 13.8 mph - N/A   Overcast
3:53 AM 63.0 °F 57.0 °F 81% 30.07 in 10.0 mi NE 9.2 mph - N/A   Overcast
4:53 AM 63.0 °F 57.0 °F 81% 30.09 in 10.0 mi NNE 10.4 mph - N/A   Overcast
5:38 AM 62.6 °F 55.4 °F 77% 30.08 in 10.0 mi NE 5.8 mph - N/A   Overcast
5:53 AM 62.1 °F 55.9 °F 80% 30.10 in 10.0 mi NNE 8.1 mph - N/A   Overcast
6:53 AM 62.1 °F 57.0 °F 84% 30.11 in 9.0 mi NE 6.9 mph - N/A   Overcast
7:53 AM 63.0 °F 57.0 °F 81% 30.12 in 10.0 mi NNE 6.9 mph - N/A   Overcast
8:53 AM 63.0 °F 57.0 °F 81% 30.14 in 10.0 mi NNE 8.1 mph - N/A   Overcast
9:53 AM 63.0 °F 57.0 °F 81% 30.15 in 10.0 mi NE 8.1 mph - N/A   Overcast
10:53 AM 64.0 °F 57.0 °F 78% 30.16 in 10.0 mi North 9.2 mph - N/A   Overcast
11:53 AM 66.0 °F 57.0 °F 73% 30.16 in 10.0 mi NNE 8.1 mph - N/A   Overcast
12:00 PM 66.2 °F 57.2 °F 73% 30.14 in 10.0 mi NNE 8.1 mph - N/A   Overcast
12:53 PM 68.0 °F 57.9 °F 70% 30.16 in 10.0 mi North 6.9 mph - N/A   Overcast
1:06 PM 69.8 °F 57.2 °F 64% 30.13 in 10.0 mi North 6.9 mph - N/A   Overcast
1:53 PM 72.0 °F 60.1 °F 66% 30.13 in 10.0 mi NE 6.9 mph - N/A   Overcast
2:53 PM 73.9 °F 59.0 °F 59% 30.12 in 10.0 mi North 9.2 mph - N/A   Mostly Cloudy
3:53 PM 75.0 °F 60.1 °F 60% 30.10 in 10.0 mi Variable 4.6 mph - N/A   Mostly Cloudy
4:29 PM 75.2 °F 60.8 °F 61% 30.07 in 10.0 mi Variable 5.8 mph - N/A   Scattered Clouds
4:53 PM 77.0 °F 61.0 °F 58% 30.10 in 10.0 mi Variable 5.8 mph - N/A   Scattered Clouds
5:53 PM 75.9 °F 61.0 °F 60% 30.09 in 10.0 mi North 6.9 mph - N/A   Scattered Clouds
6:53 PM 72.0 °F 62.1 °F 71% 30.09 in 10.0 mi Calm Calm - N/A   Clear
7:53 PM 66.9 °F 62.1 °F 84% 30.09 in 10.0 mi Calm Calm - N/A   Clear
8:53 PM 64.9 °F 60.1 °F 84% 30.10 in 10.0 mi Calm Calm - N/A   Clear
9:53 PM 64.0 °F 59.0 °F 84% 30.11 in 10.0 mi Calm Calm - N/A   Clear
10:53 PM 63.0 °F 57.9 °F 84% 30.11 in 8.0 mi Calm Calm - N/A   Clear
11:53 PM 62.1 °F 57.9 °F 86% 30.11 in 6.0 mi Calm Calm - N/A   Clear